Santa Ana, CA

11:54 PM PDT on May 25, 2017 (GMT -0700)
John Wayne-Orange County

Weather History for KSNA - August, 2013

Change the Weather History Date:

Wednesday, August 28, 2013

  Actual Average Record
Temperature  
Mean Temperature 80 °F 73 °F  
Max Temperature 89 °F 81 °F 93 °F (2014)
Min Temperature 70 °F 65 °F 62 °F (1999)
Degree Days  
Heating Degree Days 0 0  
Month to date heating degree days 0 0  
Since 1 June heating degree days 0 7  
Since 1 July heating degree days 0 0  
Cooling Degree Days 15 8  
Month to date cooling degree days 222 215  
Year to date cooling degree days 643 549  
Since 1 June cooling degree days 563 482  
Growing Degree Days 30 (Base 50)    
Moisture  
Dew Point 59 °F    
Average Humidity 51    
Maximum Humidity 68    
Minimum Humidity 34    
Precipitation  
Precipitation 0.00 in 0.00 in 0.01 in (1951)
Month to date precipitation 0.00 0.03  
Year to date precipitation 2.09 9.03  
Since 1 July precipitation 0.12  
Snow  
Snow 0.00 in - - ()
Month to date snowfall 0.0  
Year to date snowfall 0.0  
Snow Depth 0.00 in    
Sea Level Pressure  
Sea Level Pressure 29.83 in    
Wind  
Wind Speed 4 mph (SW)    
Max Wind Speed 12 mph    
Max Gust Speed 15 mph    
Visibility 10 miles    
Events      
T = Trace of Precipitation, MM = Missing Value Source: NWS Daily Summary

Daily Weather History Graph

Daily Weather History Graph

Search for Another Location

Airport or City:

Trip Planner

Search our weather history database for the weather conditions in past years. The results will help you decide how hot, cold, wet, or windy it might be!

Date:

Astronomy

Aug. 28, 2013 Rise Set
Actual Time 6:22 AM PDT 7:21 PM PDT
Civil Twilight 5:57 AM PDT 7:47 PM PDT
Nautical Twilight 5:26 AM PDT 8:17 PM PDT
Astronomical Twilight 4:55 AM PDT 8:48 PM PDT
Moon No Moon Rise 1:55 PM PDT (8/28)
Length of Visible Light 13h 49m
Length of Day
12h 58m
Last Quarter, 46% of the Moon is Illuminated
Aug 28
Last Quarter
Sep 5
New
Sep 12
First Quarter
Sep 19
Full
Sep 26
Last Quarter

Hourly Weather History & Observations

Time (PDT) Temp. Heat Index Dew Point Humidity Pressure Visibility Wind Dir Wind Speed Gust Speed Precip Events Conditions
12:53 AM 72.0 °F - 61.0 °F 68% 29.80 in 10.0 mi Calm Calm - N/A   Clear
1:53 AM 72.0 °F - 60.1 °F 66% 29.78 in 10.0 mi Calm Calm - N/A   Clear
2:53 AM 72.0 °F - 61.0 °F 68% 29.78 in 10.0 mi Calm Calm - N/A   Clear
3:53 AM 72.0 °F - 61.0 °F 68% 29.77 in 10.0 mi Calm Calm - N/A   Clear
4:53 AM 71.1 °F - 60.1 °F 68% 29.77 in 10.0 mi Calm Calm - N/A   Clear
5:53 AM 71.1 °F - 60.1 °F 68% 29.79 in 10.0 mi Calm Calm - N/A   Partly Cloudy
6:53 AM 71.1 °F - 60.1 °F 68% 29.81 in 9.0 mi Calm Calm - N/A   Clear
7:53 AM 75.0 °F - 60.1 °F 60% 29.83 in 9.0 mi South 3.5 mph - N/A   Clear
8:53 AM 79.0 °F - 60.1 °F 52% 29.84 in 9.0 mi Calm Calm - N/A   Partly Cloudy
9:53 AM 82.9 °F 82.8 °F 59.0 °F 44% 29.85 in 10.0 mi Variable 3.5 mph - N/A   Partly Cloudy
10:53 AM 86.0 °F 85.7 °F 60.1 °F 41% 29.86 in 10.0 mi SW 6.9 mph - N/A   Scattered Clouds
11:53 AM 86.0 °F 85.0 °F 57.9 °F 38% 29.85 in 10.0 mi SW 8.1 mph - N/A   Scattered Clouds
12:53 PM 87.1 °F 85.3 °F 55.0 °F 33% 29.85 in 10.0 mi WSW 8.1 mph - N/A   Scattered Clouds
1:53 PM 88.0 °F 86.5 °F 55.9 °F 34% 29.84 in 10.0 mi SW 10.4 mph - N/A   Scattered Clouds
2:53 PM 87.1 °F 85.7 °F 55.9 °F 35% 29.82 in 10.0 mi SW 9.2 mph - N/A   Scattered Clouds
3:53 PM 87.1 °F 85.7 °F 55.9 °F 35% 29.81 in 10.0 mi SW 9.2 mph - N/A   Scattered Clouds
4:53 PM 87.1 °F 86.5 °F 59.0 °F 39% 29.80 in 10.0 mi SSW 10.4 mph - N/A   Partly Cloudy
5:53 PM 86.0 °F 85.4 °F 59.0 °F 40% 29.81 in 10.0 mi SSW 8.1 mph - N/A   Scattered Clouds
6:53 PM 82.0 °F 81.7 °F 57.0 °F 42% 29.81 in 10.0 mi SW 6.9 mph - N/A   Partly Cloudy
7:53 PM 79.0 °F - 55.9 °F 45% 29.83 in 10.0 mi SW 6.9 mph - N/A   Clear
8:53 PM 77.0 °F - 57.9 °F 52% 29.86 in 10.0 mi SW 3.5 mph - N/A   Clear
9:53 PM 75.9 °F - 60.1 °F 58% 29.88 in 10.0 mi South 4.6 mph - N/A   Clear
10:53 PM 75.9 °F - 60.1 °F 58% 29.88 in 10.0 mi Calm Calm - N/A   Clear
11:53 PM 73.0 °F - 62.1 °F 68% 29.88 in 10.0 mi SSW 4.6 mph - N/A   Clear